Date String (YYYY-MM-DD hh:mm:ss) UTC,Instrument flags,absolute air pressure of the measurement (hPa),sample flow rate (lpm),inlet stack bypass flow (lpm),air temperature of the measurement (°C),ambient temperature measured by the external sensor (°C),aerosol sample conditioner tube jacket temperature (°C),OPC LED temperature (°C),internal box temperature (°C),relative humidity of the measurement (%),span deviation,mass concentration of particles derived from Lorenz-Mie calculation of OPC scattering (μg/m³),mass concentration of particles derived from Lorenz-Mie calculation of OPC scattering (μg/m³),mass concentration of particles derived from Lorenz-Mie calculation of OPC scattering (μg/m³)
DateTimeUTC,F1_M11,P_M11,Q1_M11,Q2_M11,T1_M11,T2_M11,T3_M11,T4_M11,T5_M11,U1_M11,ZSPAN_M11,X0_M11,X2_M11,X1_M11
2023-12-12 23:00:00,SystemResetWarning,0833.9,5.00,000.00,019.7,018.8,000.0,028.0,021.0,20.7,0000.0,0009.11,0005.43,0004.99
2023-12-12 23:01:00,SystemResetWarning,0833.9,5.00,000.00,019.7,018.8,000.0,028.0,021.0,20.7,0000.0,0009.60,0005.42,0004.96
2023-12-12 23:02:00,SystemResetWarning,0833.9,5.00,000.00,019.7,018.8,000.0,028.0,021.0,20.7,0000.0,0009.71,0005.45,0004.95
2023-12-12 23:03:00,SystemResetWarning,0833.9,5.00,000.00,019.7,018.8,000.0,028.0,021.0,20.6,0000.0,0009.76,0005.48,0004.95
2023-12-12 23:04:00,SystemResetWarning,0833.9,5.00,000.00,019.7,018.8,000.0,028.0,021.0,20.6,0000.0,0009.71,0005.46,0004.94
2023-12-12 23:05:00,SystemResetWarning,0834.0,5.00,000.00,019.7,018.8,000.0,028.0,021.0,20.6,0000.0,0009.13,0005.42,0004.92
2023-12-12 23:06:00,SystemResetWarning,0834.0,5.00,000.00,019.7,018.8,000.0,028.0,021.0,20.6,0000.0,0008.88,0005.40,0004.91
2023-12-12 23:07:00,SystemResetWarning,0834.0,5.00,000.00,019.7,018.8,000.0,028.0,021.0,20.6,0000.0,0008.95,0005.42,0004.92
2023-12-12 23:08:00,SystemResetWarning,0834.0,5.00,000.00,019.7,018.8,000.0,028.0,021.0,20.6,0000.0,0008.89,0005.41,0004.91
2023-12-12 23:09:00,SystemResetWarning,0834.0,4.99,000.00,019.7,018.8,000.0,028.0,021.0,20.6,0000.0,0008.98,0005.42,0004.90
2023-12-12 23:10:00,SystemResetWarning,0834.1,5.00,000.00,019.7,018.8,000.0,028.0,021.0,20.6,0000.0,0009.00,0005.42,0004.90
2023-12-12 23:11:00,SystemResetWarning,0834.1,5.00,000.00,019.7,018.8,000.0,028.0,021.0,20.6,0000.0,0009.06,0005.46,0004.92
2023-12-12 23:12:00,SystemResetWarning,0834.1,4.99,000.00,019.7,018.8,000.0,028.0,021.0,20.6,0000.0,0008.63,0005.48,0004.94
2023-12-12 23:13:00,SystemResetWarning,0834.1,5.00,000.00,019.7,018.8,000.0,028.0,021.0,20.6,0000.0,0008.66,0005.44,0004.93
2023-12-12 23:14:00,SystemResetWarning,0834.0,5.00,000.00,019.7,018.8,000.0,028.0,021.0,20.6,0000.0,0008.77,0005.42,0004.93
2023-12-12 23:15:00,SystemResetWarning,0834.0,5.00,000.00,019.7,018.8,000.0,028.0,021.0,20.6,0000.0,0008.87,0005.46,0004.93
2023-12-12 23:16:00,SystemResetWarning,0834.0,5.00,000.00,019.7,018.8,000.0,028.0,021.0,20.6,0000.0,0008.87,0005.43,0004.93
2023-12-12 23:17:00,SystemResetWarning,0834.1,5.00,000.00,019.7,018.8,000.0,028.0,021.0,20.6,0000.0,0009.15,0005.45,0004.94
2023-12-12 23:18:00,SystemResetWarning,0834.1,5.00,000.00,019.7,018.8,000.0,028.0,021.0,20.7,0000.0,0009.14,0005.46,0004.95
2023-12-12 23:19:00,SystemResetWarning,0834.1,5.00,000.00,019.7,018.8,000.0,028.0,021.0,20.7,0000.0,0009.11,0005.48,0004.95
2023-12-12 23:20:00,SystemResetWarning,0834.1,5.01,000.00,019.7,018.8,000.0,028.0,021.0,20.6,0000.0,0009.08,0005.49,0004.97
2023-12-12 23:21:00,SystemResetWarning,0834.1,5.00,000.00,019.7,018.8,000.0,028.0,021.0,20.7,0000.0,0009.10,0005.53,0005.00
2023-12-12 23:22:00,SystemResetWarning,0834.1,5.00,000.00,019.7,018.8,000.0,028.0,021.0,20.7,0000.0,0009.06,0005.53,0005.02
2023-12-12 23:23:00,SystemResetWarning,0834.1,5.00,000.00,019.7,018.8,000.0,028.0,021.0,20.7,0000.0,0009.05,0005.52,0005.04
2023-12-12 23:24:00,SystemResetWarning,0834.1,5.00,000.00,019.7,018.8,000.0,028.0,021.0,20.7,0000.0,0009.15,0005.55,0005.07
2023-12-12 23:25:00,SystemResetWarning,0834.1,5.00,000.00,019.7,018.8,000.0,028.0,021.0,20.7,0000.0,0009.29,0005.60,0005.12
2023-12-12 23:26:00,SystemResetWarning,0834.2,5.00,000.00,019.7,018.8,000.0,028.0,021.0,20.7,0000.0,0009.37,0005.60,0005.15
2023-12-12 23:27:00,SystemResetWarning,0834.2,5.00,000.00,019.7,018.8,000.0,028.0,021.0,20.7,0000.0,0009.64,0005.67,0005.18
2023-12-12 23:28:00,SystemResetWarning,0834.2,5.00,000.00,019.7,018.8,000.0,028.0,021.0,20.7,0000.0,0009.57,0005.69,0005.20
2023-12-12 23:29:00,SystemResetWarning,0834.2,5.00,000.00,019.7,018.8,000.0,028.0,021.0,20.7,0000.0,0009.60,0005.73,0005.22
2023-12-12 23:30:00,SystemResetWarning,0834.2,5.01,000.00,019.7,018.8,000.0,028.0,021.0,20.7,0000.0,0009.64,0005.75,0005.24
2023-12-12 23:31:00,SystemResetWarning,0834.2,5.01,000.00,019.7,018.8,000.0,028.0,021.0,20.7,0000.0,0009.82,0005.77,0005.27
2023-12-12 23:32:00,SystemResetWarning,0834.2,5.00,000.00,019.7,018.8,000.0,028.0,021.0,20.7,0000.0,0010.88,0005.76,0005.26
2023-12-12 23:33:00,SystemResetWarning,0834.2,5.00,000.00,019.7,018.8,000.0,028.0,020.9,20.7,0000.0,0011.72,0005.77,0005.26
2023-12-12 23:34:00,SystemResetWarning,0834.2,5.00,000.00,019.7,018.8,000.0,028.0,021.0,20.7,0000.0,0012.86,0005.83,0005.28
2023-12-12 23:35:00,SystemResetWarning,0834.3,4.99,000.00,019.7,018.8,000.0,028.0,021.0,20.6,0000.0,0012.92,0005.89,0005.29
2023-12-12 23:36:00,SystemResetWarning,0834.6,4.99,000.00,019.7,018.8,000.0,028.0,021.0,20.7,0000.0,0012.61,0005.88,0005.30
2023-12-12 23:37:00,SystemResetWarning,0834.5,5.00,000.00,019.7,018.8,000.0,028.0,020.9,20.7,0000.0,0012.50,0005.94,0005.31
2023-12-12 23:38:00,SystemResetWarning,0834.4,5.01,000.00,019.7,018.8,000.0,028.0,021.0,20.7,0000.0,0012.48,0005.97,0005.32
2023-12-12 23:39:00,SystemResetWarning,0834.4,5.01,000.00,019.7,018.8,000.0,028.0,021.0,20.7,0000.0,0012.38,0005.99,0005.34
2023-12-12 23:40:00,SystemResetWarning,0834.3,5.00,000.00,019.7,018.8,000.0,028.0,021.0,20.7,0000.0,0012.43,0006.03,0005.37
2023-12-12 23:41:00,SystemResetWarning,0834.4,4.99,000.00,019.7,018.8,000.0,028.0,021.0,20.7,0000.0,0012.46,0006.06,0005.39
2023-12-12 23:42:00,SystemResetWarning,0834.4,4.99,000.00,019.7,018.8,000.0,028.0,021.0,20.7,0000.0,0012.39,0006.11,0005.42
2023-12-12 23:43:00,SystemResetWarning,0834.4,4.99,000.00,019.7,018.8,000.0,028.0,021.0,20.7,0000.0,0011.38,0006.17,0005.47
2023-12-12 23:44:00,SystemResetWarning,0834.4,5.00,000.00,019.7,018.8,000.0,028.0,021.0,20.7,0000.0,0010.57,0006.21,0005.50
2023-12-12 23:45:00,SystemResetWarning,0834.4,5.00,000.00,019.7,018.8,000.0,028.0,021.0,20.8,0000.0,0009.59,0006.26,0005.53
2023-12-12 23:46:00,SystemResetWarning,0834.4,5.01,000.00,019.7,018.8,000.0,028.0,021.0,20.8,0000.0,0009.59,0006.30,0005.56
2023-12-12 23:47:00,SystemResetWarning,0834.4,5.01,000.00,019.7,018.8,000.0,028.0,021.0,20.8,0000.0,0009.76,0006.37,0005.58
2023-12-12 23:48:00,SystemResetWarning,0834.5,5.00,000.00,019.7,018.8,000.0,028.0,021.0,20.8,0000.0,0009.78,0006.39,0005.62
2023-12-12 23:49:00,SystemResetWarning,0834.5,5.00,000.00,019.7,018.8,000.0,028.0,021.0,20.8,0000.0,0009.69,0006.40,0005.67
2023-12-12 23:50:00,SystemResetWarning,0834.5,4.99,000.00,019.7,018.8,000.0,028.0,021.0,20.8,0000.0,0009.66,0006.45,0005.71
2023-12-12 23:51:00,SystemResetWarning,0834.5,5.00,000.00,019.7,018.8,000.0,028.0,021.0,20.8,0000.0,0009.80,0006.50,0005.74
2023-12-12 23:52:00,SystemResetWarning,0834.5,5.00,000.00,019.7,018.8,000.0,028.0,021.0,20.8,0000.0,0009.87,0006.51,0005.77
2023-12-12 23:53:00,SystemResetWarning,0834.9,5.00,000.00,019.7,018.8,000.0,028.0,021.0,20.8,0000.0,0009.82,0006.50,0005.79
2023-12-12 23:54:00,SystemResetWarning,0835.0,5.02,000.00,019.7,018.8,000.0,028.0,021.0,20.8,0000.0,0009.83,0006.51,0005.79
2023-12-12 23:55:00,SystemResetWarning,0834.9,5.00,000.00,019.7,018.8,000.0,028.0,021.0,20.8,0000.0,0009.87,0006.54,0005.81
2023-12-12 23:56:00,SystemResetWarning,0834.6,5.00,000.00,019.7,018.8,000.0,028.0,020.9,20.8,0000.0,0009.76,0006.49,0005.82
2023-12-12 23:57:00,SystemResetWarning,0834.6,5.00,000.00,019.7,018.8,000.0,028.0,021.0,20.8,0000.0,0009.76,0006.46,0005.83
2023-12-12 23:58:00,SystemResetWarning,0834.7,5.00,000.00,019.7,018.8,000.0,028.0,021.0,20.8,0000.0,0010.01,0006.42,0005.85
2023-12-12 23:59:00,SystemResetWarning,0835.1,4.99,000.00,019.7,018.8,000.0,028.0,021.0,20.8,0000.0,0010.60,0006.44,0005.87
